User: anonymous   Login
Location: Unspecified
(0.0000°N, 0.0000°E)
Time: 18:55:21
(UTC+00:00)
Language:

STRAND 1 - Orbit

View from above orbital plane
View from above orbital plane
View from above satellite
View from above satellite

Ground track
Ground track

The orbit data is extracted from the following two-line orbital elements,

1 39090U 13009E   19341.16238273  .00000040  00000-0  29151-4 0  9990
2 39090  98.4697 184.1099 0009880 134.5422 225.6572 14.35108559354983
Epoch (UTC): 07 December 2019 03:53:49
Eccentricity: 0.0009880
inclination: 98.4697°
perigee height: 767 km
apogee height: 782 km
right ascension of ascending node: 184.1099°
argument of perigee: 134.5422°
revolutions per day: 14.35108559
mean anomaly at epoch: 225.6572°
orbit number at epoch: 35498

The dashed part of the orbit path shows where the satellite is in the earth's shadow,  

DLR